Terminal Aerodrome Forecast
Issued by NWS

Home | Current Version | Previous Version | Text Only | Print | Product List | Glossary On
Versions: 1 2 3 4 5 6 7 8 9 10 11 12 13 14 15 16 17 18 19 20 21 22 23 24 25 26 27 28 29 30 31 32 33 34 35 36 37
000
FTUS46 KOTX 020134 AAB
TAFCOE
TAF AMD
KCOE 020134Z 0202/0224 20003KT 2SM -SN OVC003
     FM020330 20003KT 4SM -SHSN OVC006
     FM020500 20005KT 6SM BR SCT003 OVC010
     FM021500 11005KT P6SM OVC015
     FM022000 13005KT P6SM -RA BKN020 OVC035
      AMD LTD TO CLD AND VIS=

USA.gov is the U.S. government's official web portal to all federal, state and local government web resources and services.